Regional Weather Roundup
Issued by NWS Midland/Odessa, TX

Skip options and go directly to product.
Home | Oldest Version | Previous Version | Current Version | All | Graphics & Text | Save Text | Print | Product List | Glossary On

Skip product version selection by date and time.   
366
ASUS44 KMAF 030710
RWRMAF
MIDLAND AREA WEATHER ROUNDUP
NATIONAL WEATHER SERVICE MIDLAND TX
100 AM CST TUE MAR 03 2015

...IN SOUTHWEST TEXAS AND SOUTHEAST NEW MEXICO...

CITY           SKY/WX    TMP DP  RH WIND       PRES   REMARKS
ALPINE         PTCLDY    45  39  77 SW7       30.06F
ANDREWS        FOG       36  36 100 S7        29.99F VSB 1/2 WCI  31
ARTESIA        MOCLDY    37  37 100 SE18      29.95F WCI  27
BIG SPRING     CLOUDY   N/A N/A N/A S7        30.05F
CARLSBAD       CLOUDY    38  36  92 S13       29.97S FOG     WCI  30
DRYDEN           N/A     46  43  89 CALM      30.04F
FORT STOCKTON  CLOUDY    38  38 100 W6        30.01F WCI  33
GUAD PASS      NOT AVBL
HOBBS          CLOUDY    36  36 100 SW10      30.00S FOG     WCI  28
MARFA          PTCLDY    45  36  70 N7        30.04F
MIDLAND AIRPK  FOG       39  39 100 S6        30.02F VSB 1   WCI  35
MIDLAND INTL   FOG       39  38  96 S9        30.01F VSB 1/2 WCI  33
ODESSA         FOG       39  38  96 S6        30.01F VSB 1/2 WCI  35
PECOS          CLOUDY    39  36  88 E5        30.00F WCI  36
PRESIDIO       FAIR      55  39  54 NE7       29.97F
SEMINOLE       FOG       37  37 100 S8        30.00F VSB 3/4 WCI  30
SNYDER         CLOUDY    36  36  99 S8        30.03F FOG     WCI  29
WINK           CLOUDY    41  36  82 SE5       29.99F WCI  38
$$
...OTHER STATIONS IN TEXAS...

CITY           SKY/WX    TMP DP  RH WIND       PRES   REMARKS
ABILENE        CLOUDY    38  36  92 SW5       30.07F WCI  34
AMARILLO       CLOUDY    34  32  92 S18G29    29.87F FOG     WCI  23
AUSTIN         FOG       41  41 100 N5        30.13F VSB 3/4 WCI  38
BROWNSVILLE    FOG       56  55  97 NW5       30.09F VSB 3/4
CORPUS CHRISTI DRZL/FOG  53  52  96 N7        30.10F VSB 1/2
DALLAS FTW     DRZL/FOG  40  40 100 CALM      30.10F VSB<1/4
DEL RIO        FOG       48  47  96 E8        30.07F VSB 3/4
EL PASO        CLOUDY    58  44  60 SW8       29.94F
HOUSTON INT    FOG       56  55  97 E3        30.13F VSB 1/4
LUBBOCK        CLOUDY    34  34 100 S13       29.97F FOG     WCI  25
SAN ANGELO     CLOUDY    39  37  92 N3        30.07S FOG
SAN ANTONIO    DRZL/FOG  46  44  93 NE3       30.11F VSB 1/16
WACO           FOG       40  39  97 CALM      30.14F VSB 3/4
WICHITA FALLS  NOT AVBL
$$
...OTHER LOCATIONS IN NEW MEXICO...

CITY           SKY/WX    TMP DP  RH WIND       PRES   REMARKS
ALAMAGORDO     MOCLDY    57  45  62 S12       29.95F
ALBUQUERQUE    CLOUDY    42  34  73 N12       29.98S WCI  36
CANNON AFB     PTCLDY    33  32  98 S8        29.89F WCI  26
CLOVIS         MOCLDY    34  30  86 S13       29.89F WCI  25
HOLLOMAN AFB   MOCLDY    54  47  77 SW12      29.92F
ROSWELL        MOCLDY    37  34  89 S16G22    29.93F WCI  28
RUIDOSO        MOCLDY    45  39  81 SW24G33   29.97F WCI  36
SANTA FE       CLOUDY    35  32  88 W6        29.95R WCI  30
TRUTH OR CONSE MOCLDY    52  40  63 S14       29.91F
TUCUMCARI      MOCLDY    38  34  85 SW9       29.83F WCI  31
$$

USA.gov is the U.S. government's official web portal to all federal, state and local government web resources and services.